This demonstration page uses our WeatherBlox Daily Observations layout. Learn more.

Left ArrowRight Arrow

39.29038, -76.61219

Hourly Observations for July 30, 2021

Temp ( °F °C ) Dew Point ( °F °C ) Humidity (%) Winds ( mph kmh ) Pressure ( in mb ) Visibility ( mi km ) Precip ( " mm )
12:54 am 00:54 Partly Cloudy 75 23.9 71 21.7 88 88 SSW 3 6 29.77 1008 8 13 N/A
1:54 am 01:54 Partly Cloudy 74 23.3 71 21.7 91 91 W 5 7 29.76 1008 8 13 N/A
2:54 am 02:54 Mostly Clear 74 23.3 71 21.7 91 91 NW 3 6 29.75 1007 7 11 N/A
3:54 am 03:54 Mostly Clear 73 22.8 70 21.1 90 90 W 5 7 29.75 1008 7 11 N/A
4:54 am 04:54 Mostly Cloudy 75 23.9 70 21.1 84 84 W 7 11 29.77 1008 7 11 N/A
5:54 am 05:54 Partly Cloudy 75 23.9 69 20.6 82 82 WNW 9 15 29.78 1009 10 16 N/A
6:54 am 06:54 Partly Cloudy 75 23.9 69 20.6 82 82 W 3 6 29.79 1009 10 16 N/A
7:54 am 07:54 Mostly Sunny 78 25.6 69 20.6 74 74 W 7 11 29.80 1009 10 16 N/A
8:54 am 08:54 Mostly Sunny 81 27.2 69 20.6 67 67 WNW 8 13 29.82 1010 10 16 N/A
9:54 am 09:54 Mostly Sunny 84 28.9 68 20 59 59 NW 9 15 29.83 1010 10 16 N/A
10:54 am 10:54 Mostly Cloudy 86 30 66 18.9 51 51 NW 9 15 29.85 1011 10 16 N/A
11:54 am 11:54 Mostly Cloudy 87 30.6 62 16.7 43 43 NNW 12 19 29.85 1011 10 16 N/A
12:54 pm 12:54 Mostly Cloudy 89 31.7 63 17.2 42 42 NW 14 22 29.84 1011 10 16 N/A
1:54 pm 13:54 Mostly Cloudy 88 31.1 60 15.6 39 39 NW 13 20 29.84 1011 10 16 N/A
2:54 pm 14:54 Partly Cloudy 90 32.2 58 14.4 34 34 NW 10 17 29.85 1011 10 16 N/A
3:54 pm 15:54 Partly Cloudy 89 31.7 56 13.3 33 33 NW 9 15 29.85 1011 10 16 N/A
4:54 pm 16:54 Mostly Cloudy 88 31.1 55 12.8 33 33 WNW 15 24 29.85 1011 10 16 N/A
5:54 pm 17:54 Mostly Cloudy 86 30 56 13.3 36 36 NW 8 13 29.87 1011 10 16 N/A
6:54 pm 18:54 Partly Cloudy 86 30 55 12.8 35 35 NW 12 19 29.87 1012 10 16 N/A
7:54 pm 19:54 Partly Cloudy 84 28.9 56 13.3 38 38 WNW 8 13 29.89 1012 10 16 N/A
8:54 pm 20:54 Partly Cloudy 79 26.1 57 13.9 47 47 N N/A 29.90 1013 10 16 N/A
9:54 pm 21:54 Partly Cloudy 78 25.6 58 14.4 50 50 NW 3 6 29.93 1014 10 16 N/A
10:54 pm 22:54 Mostly Clear 76 24.4 58 14.4 54 54 N N/A 29.95 1014 10 16 N/A
11:54 pm 23:54 Mostly Clear 74 23.3 56 13.3 54 54 NNW 3 6 29.95 1014 10 16 N/A

Powered by AerisWeather